This demonstration page uses our WeatherBlox Daily Observations layout. Learn more.

Left ArrowRight Arrow

Hourly Observations for November 27, 2022

Temp ( °F °C ) Dew Point ( °F °C ) Humidity (%) Winds ( mph kmh ) Pressure ( in mb ) Visibility ( mi km ) Precip ( " mm )
12:53 am 00:53 Clear 50 10 32 0 50 50 NW 3 6 30.09 1019 10 16 0.00 0.00
1:53 am 01:53 Clear 48 8.9 32 0 54 54 NW 5 7 30.09 1019 10 16 0.00 0.00
2:53 am 02:53 Clear 55 12.8 28 -2.2 35 35 N 9 15 30.07 1018 10 16 0.00 0.00
3:53 am 03:53 Clear 48 8.9 29 -1.7 47 47 N 5 7 30.08 1019 10 16 0.00 0.00
4:53 am 04:53 Clear 41 5 31 -0.6 67 67 SSW 3 6 30.09 1019 10 16 0.00 0.00
5:53 am 05:53 Clear 39 3.9 30 -1.1 70 70 Calm 30.10 1019 10 16 0.00 0.00
6:53 am 06:53 Clear 38 3.3 30 -1.1 73 73 Calm 30.11 1020 10 16 0.00 0.00
7:53 am 07:53 Sunny 38 3.3 31 -0.6 76 76 Calm 30.14 1021 10 16 0.00 0.00
8:53 am 08:53 Sunny 44 6.7 32 0 62 62 Calm 30.14 1021 10 16 0.00 0.00
9:53 am 09:53 Sunny 56 13.3 33 0.6 42 42 Calm 30.14 1021 10 16 0.00 0.00
10:53 am 10:53 Sunny 58 14.4 32 0 37 37 Calm 30.14 1021 10 16 0.00 0.00
11:53 am 11:53 Sunny 61 16.1 30 -1.1 31 31 Calm 30.11 1020 10 16 0.00 0.00
12:53 pm 12:53 Sunny 62 16.7 29 -1.7 28 28 Calm 30.08 1019 10 16 0.00 0.00
1:53 pm 13:53 Sunny 63 17.2 33 0.6 33 33 Calm 30.04 1017 10 16 0.00 0.00
2:53 pm 14:53 Sunny 64 17.8 32 0 30 30 S 5 7 30.02 1017 10 16 0.00 0.00
3:53 pm 15:53 Sunny 63 17.2 34 1.1 34 34 S 6 9 30.01 1016 10 16 0.00 0.00
4:53 pm 16:53 Mostly Clear 57 13.9 35 1.7 43 43 SSW 3 6 30.01 1016 10 16 0.00 0.00
5:53 pm 17:53 Partly Cloudy 56 13.3 35 1.7 45 45 S 5 7 30.00 1016 9 14 0.00 0.00
6:53 pm 18:53 Clear 50 10 35 1.7 56 56 Calm 29.99 1016 9 14 0.00 0.00
7:53 pm 19:53 Partly Cloudy 46 7.8 35 1.7 65 65 N 5 7 29.99 1016 10 16 0.00 0.00
8:53 pm 20:53 Clear 46 7.8 36 2.2 68 68 SSE 5 7 29.98 1015 9 14 0.00 0.00
9:53 pm 21:53 Clear 43 6.1 35 1.7 73 73 Calm 29.98 1015 8 13 0.00 0.00
10:53 pm 22:53 Clear 43 6.1 35 1.7 73 73 Calm 29.97 1015 10 16 0.00 0.00
11:53 pm 23:53 Clear 41 5 34 1.1 76 76 Calm 29.96 1015 10 16 0.00 0.00

Powered by AerisWeather